Regional Weather Roundup
Issued by NWS Little Rock, AR

Home | Current Version | Previous Version | Graphics & Text | Print | Product List | Glossary On
Versions: 1 2 3 4 5 6 7 8 9 10 11 12 13 14 15 16 17 18 19 20 21 22 23 24 25 26 27
000
ASUS44 KLZK 290705
RWRLZK

WEATHER ROUNDUP FOR ARKANSAS
NATIONAL WEATHER SERVICE LITTLE ROCK AR
200 AM CDT FRI APR 29 2016

NOTE: "FAIR" INDICATES FEW OR NO CLOUDS BELOW 12,000 FEET WITH NO
SIGNIFICANT WEATHER AND/OR OBSTRUCTIONS TO VISIBILITY.

ARZ001-003-010-029-290800-
NORTHWEST ARKANSAS

CITY           SKY/WX    TMP DP  RH WIND       PRES   REMARKS
FAYETTEVILLE   CLOUDY    55  52  89 CALM      29.97R
FORT SMITH     CLOUDY    64  50  60 NE7       29.91S
HARRISON       CLOUDY    60  46  59 E5        29.98F
BENTONVILLE    MOCLDY    63  45  51 E6        29.98R
ROGERS         CLOUDY    63  45  51 E5        29.99R
SILOAM SPGS    PTCLDY    61  43  51 E8        29.96S
HIGHFILL       MOCLDY    62  48  60 E5        29.97R
$$

ARZ004-005-016-290800-
NORTH CENTRAL ARKANSAS

CITY           SKY/WX    TMP DP  RH WIND       PRES   REMARKS
BATESVILLE     CLOUDY    57  52  82 CALM      29.97S
FLIPPIN        CLOUDY   N/A N/A N/A CALM      29.95S
MTN HOME       CLOUDY    60  44  55 NE5       29.97S
$$

ARZ040-041-290800-
WEST CENTRAL ARKANSAS

CITY           SKY/WX    TMP DP  RH WIND       PRES   REMARKS
MENA           MOCLDY    61  57  88 CALM      29.91S
MOUNT IDA      PTCLDY    59  55  87 SE3       29.90R
$$

ARZ009-017-025-026-028-290800-
NORTHEAST ARKANSAS

CITY           SKY/WX    TMP DP  RH WIND       PRES   REMARKS
CORNING          N/A     63  55  77 N7        29.97F
JONESBORO      CLOUDY    59  52  77 CALM      29.95F
NEWPORT        CLOUDY    62  56  81 N5        29.96S
WALNUT RIDGE   CLOUDY    61  54  77 N6        29.96R
BLYTHEVILLE    CLOUDY    63  51  65 CALM      29.96S
$$

ARZ022-023-033-042-044-290800-
CENTRAL ARKANSAS

CITY           SKY/WX    TMP DP  RH WIND       PRES   REMARKS
LITTLE ROCK    CLOUDY    66  56  70 NE5       29.93F
N LITTLE ROCK    N/A     65  56  71 E6        29.91F
JACKSONVILLE   CLOUDY    60  56  88 CALM      29.92F
SEARCY         CLOUDY    59  57  93 CALM      29.96S
HOT SPRINGS    CLOUDY    64  53  67 CALM      29.93R
RUSSELLVILLE   MOCLDY    60  53  77 CALM      29.93S
$$

ARZ036-290800-
EAST ARKANSAS

CITY           SKY/WX    TMP DP  RH WIND       PRES   REMARKS
WEST MEMPHIS   CLOUDY    63  52  67 NE5       29.93F
$$

ARZ050-053-066-070-073-290800-
SOUTHWEST ARKANSAS

CITY           SKY/WX    TMP DP  RH WIND       PRES   REMARKS
ARKADELPHIA    FAIR      62  62 100 N3        29.91S
CAMDEN         PTCLDY    61  55  82 CALM      29.89F
TEXARKANA      CLOUDY    69  58  67 SE5       29.86F
EL DORADO      PTCLDY    67  61  81 E3        29.89F
DE QUEEN       CLOUDY    67  57  70 E6        29.84F
$$

ARZ056-057-069-290800-
SOUTHEAST ARKANSAS

CITY           SKY/WX    TMP DP  RH WIND       PRES   REMARKS
PINE BLUFF     PTCLDY    67  56  67 CALM      29.92S
STUTTGART      CLOUDY    66  54  63 MISG      29.94S
MONTICELLO     CLEAR     63  59  87 CALM      29.91S

$$






USA.gov is the U.S. government's official web portal to all federal, state and local government web resources and services.